[[{"header":{"parameterUnit":"m.s-1","parameterCategory":1,"la1":30.2991,"la2":30.254,"lo1":-89.0895,"lo2":-89.0444,"dy":0.0017,"dx":0.0017,"nx":28,"ny":28,"refTime":"2023-08-18T09:00:00:Z","depth":0,"parameterNumber":2,"parameterNumberName":"U-component_of_WINDS"},"data":[0,0,0,0,0,0,0,0,0,0,0,0,0,0,0,0,0,0,0,0,0,0,0,0,0,0,0,0,0,0,0,0,0,0,0,0,0,0,0,0,0,0,0,0,0,0,0,0,0,0,0,0,0,0,0,0,0,0,3.6541,3.6543,0,3.6669,3.667,3.6672,3.6689,3.6687,3.6686,3.6685,3.6819,3.6824,3.6828,0,0,0,0,0,0,0,0,0,0,0,0,0,3.6317,3.6321,3.6541,3.6543,3.6544,3.6668,3.667,3.6672,3.6689,3.6687,3.6686,3.6685,3.6818,3.6823,3.6829,0,0,0,0,0,0,0,0,0,0,0,0,0,3.6427,3.6323,3.6541,3.6568,3.6571,3.6668,3.667,3.6672,3.6689,3.6687,3.6686,3.6684,3.6816,3.6823,3.683,3.691,0,0,3.6851,3.6854,0,0,0,0,0,0,0,0,3.642,3.6435,3.6562,3.6566,3.657,3.6661,3.664,3.6752,3.669,3.6645,3.6685,3.6683,3.6768,3.6779,3.6807,3.6916,3.6922,3.6852,3.6856,3.6859,3.6861,0,0,0,0,0,0,0,3.6413,3.643,3.6592,3.6564,3.6569,3.6575,3.6588,3.6662,3.6715,3.6648,3.665,3.6665,3.677,3.68,3.681,3.6924,3.6852,3.6858,3.6862,3.6865,3.7107,3.7109,0,0,0,0,0,0,3.64,3.6423,3.6588,3.6596,3.6489,3.658,3.6596,3.6634,3.6714,3.6725,3.6666,3.6665,3.6789,3.6802,3.6815,3.6915,3.6859,3.6866,3.687,3.7104,3.7107,3.7109,0,0,0,0,0,0,3.6395,3.6414,3.6583,3.651,3.6532,3.6586,3.6629,3.6637,3.6667,3.6728,3.6738,3.6687,3.6788,3.6805,3.6886,3.692,3.6869,3.6875,3.7102,3.7105,3.7108,3.7114,0,0,0,0,0,0,3.6388,3.6412,3.6442,3.651,3.6535,3.665,3.6631,3.6641,3.6679,3.6679,3.675,3.676,3.6788,3.6876,3.6893,3.6929,3.6881,3.7099,3.7103,3.7107,3.7111,3.7117,3.7122,0,0,0,0,0,3.638,3.6439,3.6443,3.6463,3.6573,3.6652,3.6666,3.6697,3.6681,3.6713,3.6752,3.6757,3.6913,3.6884,3.6904,3.6942,3.7097,3.7102,3.7107,3.7109,3.7116,3.7122,0,0,0,0,0,0,3.6374,3.6448,3.6454,3.6536,3.6587,3.6654,3.6694,3.6703,3.6761,3.6758,3.6795,3.6811,3.689,3.6924,3.689,3.7024,3.7004,3.7013,3.6999,3.7006,3.7012,3.7002,3.6887,0,0,0,0,0,3.6382,3.6438,3.6501,3.6567,3.6593,3.6639,3.6674,3.6693,3.6748,3.677,3.6815,3.687,3.6931,3.6971,3.7031,3.7117,3.7133,3.7153,3.7159,3.7163,3.717,3.722,3.723,3.7126,3.7126,3.7126,0,0,3.6399,3.6447,3.648,3.6567,3.6609,3.6668,3.6657,3.6719,3.6764,3.678,3.6859,3.6894,3.6958,3.7042,3.7081,3.7073,3.7203,3.7169,3.7172,3.7177,3.7226,3.7236,3.7244,3.7129,3.7128,3.7128,0,0,3.646,3.6502,3.6562,3.6605,3.6668,3.6699,3.6714,3.678,3.6804,3.6883,3.6897,3.6952,3.7056,3.7101,3.7138,3.7219,3.7226,3.7237,3.7266,3.7314,3.7322,3.733,3.7359,3.7369,3.7245,3.7245,3.7245,0,3.6474,3.6561,3.6592,3.6654,3.6693,3.6711,3.6773,3.6813,3.6893,3.692,3.691,3.7042,3.7086,3.7182,3.7202,3.7231,3.7249,3.7229,3.7318,3.7326,3.7334,3.7362,3.7373,3.7246,3.7245,3.7245,3.7245,0,3.6576,3.6636,3.6678,3.6754,3.6798,3.686,3.6902,3.6943,3.6959,3.6991,3.7073,3.7127,3.7198,3.7223,3.7239,3.7321,3.7314,3.7311,3.7291,3.7344,3.7371,3.7383,3.7247,3.7247,3.7246,3.7246,0,0,3.6634,3.6728,3.6743,3.6778,3.6851,3.6899,3.6963,3.7032,3.7067,3.7123,3.7178,3.7267,3.7265,3.7306,3.7328,3.737,3.7432,3.7362,3.7364,3.7373,3.7527,3.7529,3.7541,3.7438,3.744,3.7442,3.7522,0,3.6704,3.6816,3.6847,3.6943,3.7001,3.702,3.7076,3.7127,3.716,3.7215,3.7252,3.7315,3.7306,3.7332,3.7374,3.7415,3.7463,3.741,3.7491,3.7494,3.7474,3.7555,3.7557,3.7629,3.7533,3.7535,3.7536,0,3.68,3.6856,3.6958,3.7024,3.705,3.7099,3.7166,3.7218,3.7277,3.7299,3.7346,3.7365,3.7434,3.7411,3.7508,3.7471,3.7507,3.7532,3.7536,3.7544,3.7517,3.7565,3.7653,3.7664,3.7553,3.7552,3.755,0,3.6833,3.6935,3.7009,3.7039,3.7118,3.7153,3.7188,3.7245,3.7286,3.7345,3.7372,3.7438,3.7475,3.7527,3.7564,3.7544,3.7659,3.7639,3.7679,3.7678,3.7701,3.7699,3.7795,3.7725,3.7725,3.7724,3.7724,0,3.6907,3.6968,3.7025,3.707,3.7141,3.7177,3.7246,3.7282,3.7334,3.7388,3.7409,3.746,3.7506,3.7563,3.7593,3.767,3.7686,3.7706,3.7713,3.7704,3.7701,3.7727,3.7723,3.7727,3.7727,3.7726,3.7726,0,3.6955,3.6995,3.7077,3.7146,3.7165,3.7214,3.7273,3.7319,3.7354,3.7422,3.744,3.7495,3.7564,3.7606,3.7694,3.7714,3.7798,3.7804,3.7778,3.7781,3.7819,3.7814,3.7934,3.7952,3.787,3.787,3.7871,0,3.6999,3.7047,3.7121,3.7158,3.7193,3.7253,3.7294,3.7333,3.7375,3.7448,3.7485,3.7556,3.7614,3.7724,3.7772,3.784,3.7847,3.7884,3.7857,3.7847,3.7848,3.7844,3.785,3.7889,3.7889,3.789,3.789,0,3.7074,3.7092,3.7149,3.7215,3.7263,3.7317,3.737,3.74,3.7448,3.7495,3.7565,3.761,3.77,3.777,3.7843,3.7881,3.7894,3.7899,3.7912,3.7902,3.7885,3.7895,3.779,3.7896,3.7895,3.7895,3.7894,3.7894,3.7121,3.7165,3.7224,3.7288,3.7333,3.7383,3.743,3.747,3.7529,3.7604,3.7624,3.7698,3.7759,3.7857,3.7897,3.7957,3.7951,3.797,3.7975,3.7979,3.7979,3.7876,3.797,3.797,3.797,3.797,3.797,0,3.7197,3.7236,3.7295,3.7369,3.742,3.7428,3.7488,3.7531,3.7595,3.765,3.7707,3.7789,3.7858,3.7912,3.7983,3.802,3.8028,3.8038,3.8035,3.8044,3.798,3.7962,3.803,3.803,3.803,3.803,3.803,3.803,3.7242,3.7317,3.7342,3.744,3.7479,3.7551,3.7585,3.7632,3.7676,3.7766,3.7823,3.7858,3.7913,3.7989,3.8052,3.8067,3.8092,3.81,3.8116,3.8055,3.8048,3.8042,3.8025,3.8105,3.8105,3.8175,3.8175,3.8176]},{"header":{"parameterUnit":"m.s-1","parameterCategory":1,"la1":30.2991,"la2":30.254,"lo1":-89.0895,"lo2":-89.0444,"dy":0.0017,"dx":0.0017,"nx":28,"ny":28,"refTime":"2023-08-18T09:00:00:Z","depth":0,"parameterNumber":3,"parameterNumberName":"V-component_of_WINDS"},"data":[0,0,0,0,0,0,0,0,0,0,0,0,0,0,0,0,0,0,0,0,0,0,0,0,0,0,0,0,0,0,0,0,0,0,0,0,0,0,0,0,0,0,0,0,0,0,0,0,0,0,0,0,0,0,0,0,0,0,-0.4034,-0.4035,0,-0.406,-0.4061,-0.4061,-0.4077,-0.4078,-0.4078,-0.4078,-0.4103,-0.4104,-0.4105,0,0,0,0,0,0,0,0,0,0,0,0,0,-0.4,-0.4,-0.4034,-0.4035,-0.4035,-0.406,-0.4061,-0.4061,-0.4077,-0.4078,-0.4078,-0.4078,-0.4103,-0.4104,-0.4105,0,0,0,0,0,0,0,0,0,0,0,0,0,-0.4019,-0.4,-0.4034,-0.4046,-0.4048,-0.406,-0.4061,-0.4061,-0.4077,-0.4078,-0.4078,-0.4078,-0.4103,-0.4104,-0.4105,-0.4107,0,0,-0.4108,-0.4108,0,0,0,0,0,0,0,0,-0.4018,-0.402,-0.4044,-0.4046,-0.4047,-0.4066,-0.4058,-0.4077,-0.4077,-0.4066,-0.4078,-0.4078,-0.4091,-0.4093,-0.4097,-0.4109,-0.411,-0.4108,-0.4108,-0.4109,-0.4109,0,0,0,0,0,0,0,-0.4017,-0.4019,-0.4045,-0.4045,-0.4046,-0.4051,-0.4053,-0.4061,-0.4077,-0.4067,-0.4068,-0.4071,-0.4092,-0.4096,-0.4098,-0.411,-0.4108,-0.4108,-0.4109,-0.4109,-0.4127,-0.4127,0,0,0,0,0,0,-0.4013,-0.4018,-0.4044,-0.4045,-0.4033,-0.4051,-0.4054,-0.406,-0.4077,-0.408,-0.4071,-0.4072,-0.4095,-0.4097,-0.4099,-0.4104,-0.4108,-0.4109,-0.411,-0.4127,-0.4127,-0.4126,0,0,0,0,0,0,-0.4012,-0.4015,-0.4043,-0.4032,-0.4036,-0.4052,-0.4057,-0.406,-0.4065,-0.408,-0.4083,-0.4073,-0.4095,-0.4098,-0.4106,-0.4105,-0.411,-0.4111,-0.4127,-0.4127,-0.4127,-0.4114,0,0,0,0,0,0,-0.4011,-0.4015,-0.4016,-0.4032,-0.4036,-0.4049,-0.4057,-0.406,-0.4066,-0.4068,-0.4083,-0.4085,-0.4095,-0.4104,-0.4106,-0.4107,-0.4111,-0.4127,-0.4127,-0.4127,-0.4114,-0.4113,-0.4112,0,0,0,0,0,-0.401,-0.4011,-0.4016,-0.4019,-0.4038,-0.4049,-0.4051,-0.4063,-0.4066,-0.4068,-0.4078,-0.4085,-0.4105,-0.4105,-0.4108,-0.4108,-0.4127,-0.4127,-0.4127,-0.4115,-0.4114,-0.4113,0,0,0,0,0,0,-0.3993,-0.4013,-0.4019,-0.4025,-0.4035,-0.4051,-0.4053,-0.4061,-0.407,-0.4071,-0.4085,-0.4088,-0.4095,-0.4102,-0.4102,-0.4112,-0.4117,-0.4117,-0.4107,-0.4106,-0.4105,-0.4103,-0.4112,0,0,0,0,0,-0.3991,-0.3998,-0.4014,-0.4018,-0.4023,-0.4037,-0.4042,-0.4051,-0.4062,-0.4066,-0.4077,-0.4087,-0.4096,-0.4101,-0.411,-0.4116,-0.412,-0.4117,-0.4116,-0.4116,-0.4116,-0.4121,-0.412,-0.4126,-0.4126,-0.4126,0,0,-0.3984,-0.3996,-0.4,-0.4015,-0.4024,-0.4032,-0.4041,-0.4048,-0.4054,-0.4067,-0.4075,-0.4084,-0.4096,-0.4104,-0.4107,-0.411,-0.4115,-0.4115,-0.4115,-0.4115,-0.4121,-0.412,-0.4119,-0.4126,-0.4126,-0.4126,0,0,-0.3977,-0.3986,-0.3991,-0.4,-0.4014,-0.4024,-0.4025,-0.4041,-0.4047,-0.4056,-0.4067,-0.4074,-0.4088,-0.4097,-0.4104,-0.4102,-0.411,-0.4105,-0.41,-0.4104,-0.4104,-0.4103,-0.4104,-0.4104,-0.4105,-0.4105,-0.4105,0,-0.3968,-0.3979,-0.3992,-0.4,-0.4007,-0.402,-0.4025,-0.4033,-0.4049,-0.4054,-0.4057,-0.4076,-0.4086,-0.4096,-0.4096,-0.41,-0.4103,-0.4103,-0.4103,-0.4103,-0.4103,-0.4103,-0.4103,-0.4104,-0.4104,-0.4104,-0.4104,0,-0.3968,-0.3976,-0.3978,-0.3994,-0.4001,-0.4007,-0.4022,-0.4027,-0.4035,-0.4045,-0.4055,-0.4067,-0.4079,-0.4082,-0.4089,-0.4094,-0.4095,-0.41,-0.4105,-0.4101,-0.4102,-0.4102,-0.4103,-0.4103,-0.4104,-0.4104,0,0,-0.395,-0.3974,-0.3975,-0.3983,-0.4,-0.4006,-0.4014,-0.4026,-0.4031,-0.4042,-0.4049,-0.4062,-0.4067,-0.4075,-0.4084,-0.4088,-0.4087,-0.4093,-0.4093,-0.4092,-0.4094,-0.409,-0.409,-0.4092,-0.4092,-0.4092,-0.4093,0,-0.3946,-0.3959,-0.3972,-0.3981,-0.399,-0.4003,-0.401,-0.4021,-0.4031,-0.4039,-0.405,-0.4059,-0.4065,-0.407,-0.4075,-0.4086,-0.4088,-0.4086,-0.4099,-0.4099,-0.4096,-0.409,-0.4086,-0.4086,-0.4093,-0.4093,-0.4093,0,-0.3942,-0.3954,-0.3964,-0.3982,-0.3986,-0.3991,-0.4005,-0.4013,-0.4026,-0.4033,-0.4042,-0.4052,-0.4061,-0.4065,-0.4078,-0.4077,-0.4083,-0.409,-0.409,-0.4092,-0.4096,-0.4092,-0.4086,-0.4086,-0.4094,-0.4094,-0.4094,0,-0.3929,-0.3947,-0.3956,-0.3962,-0.3983,-0.3987,-0.3995,-0.4009,-0.4017,-0.4028,-0.4033,-0.4046,-0.4053,-0.4062,-0.4075,-0.4077,-0.4088,-0.4093,-0.4094,-0.4094,-0.4095,-0.4095,-0.4091,-0.4099,-0.4099,-0.4099,-0.4099,0,-0.3923,-0.3929,-0.395,-0.3956,-0.3963,-0.3978,-0.3985,-0.3995,-0.4008,-0.4016,-0.4028,-0.4036,-0.4052,-0.4062,-0.4072,-0.4082,-0.4085,-0.4091,-0.4094,-0.409,-0.4089,-0.4094,-0.4095,-0.4099,-0.4099,-0.4099,-0.4099,0,-0.391,-0.3924,-0.3935,-0.3954,-0.3959,-0.3964,-0.398,-0.3987,-0.3998,-0.4008,-0.4011,-0.4028,-0.404,-0.4054,-0.407,-0.4078,-0.4087,-0.4091,-0.4082,-0.4084,-0.4085,-0.4085,-0.4084,-0.4085,-0.4092,-0.4091,-0.4091,0,-0.3905,-0.391,-0.3931,-0.3937,-0.3946,-0.3956,-0.3964,-0.3979,-0.3987,-0.4004,-0.4008,-0.4021,-0.4033,-0.4052,-0.4066,-0.4079,-0.4083,-0.4082,-0.4085,-0.4082,-0.4084,-0.4084,-0.4085,-0.4081,-0.4081,-0.4081,-0.408,0,-0.3896,-0.3903,-0.3914,-0.3928,-0.3937,-0.3949,-0.3961,-0.3966,-0.3984,-0.3992,-0.4005,-0.4014,-0.4031,-0.4044,-0.406,-0.4069,-0.4078,-0.408,-0.4081,-0.4077,-0.4072,-0.4076,-0.4081,-0.4079,-0.4079,-0.408,-0.408,-0.408,-0.3887,-0.3893,-0.3909,-0.3921,-0.3932,-0.3943,-0.3951,-0.3963,-0.3974,-0.399,-0.3998,-0.4011,-0.4026,-0.4048,-0.4057,-0.4068,-0.4071,-0.4072,-0.4072,-0.4073,-0.4072,-0.4071,-0.407,-0.407,-0.407,-0.4071,-0.4071,0,-0.3879,-0.389,-0.3902,-0.3919,-0.3929,-0.3937,-0.3951,-0.3959,-0.397,-0.3984,-0.3995,-0.4011,-0.4024,-0.404,-0.4054,-0.406,-0.4064,-0.4063,-0.4063,-0.4065,-0.4068,-0.4066,-0.4059,-0.4059,-0.4059,-0.4059,-0.4059,-0.4059,-0.3876,-0.3887,-0.3896,-0.3913,-0.3924,-0.3937,-0.3945,-0.3956,-0.3967,-0.3984,-0.3995,-0.4006,-0.402,-0.4036,-0.4049,-0.4054,-0.4059,-0.4056,-0.4062,-0.4064,-0.4065,-0.4066,-0.4064,-0.4057,-0.4057,-0.4058,-0.4058,-0.4058]}]]